SCP
0 0 0 -0 -0 -0 -0 0 0 0 0 0 0 0 0 0 -0 -0 -0 0 0 0 0 0 0 -0 0 0 0 0 0 0 0 0 0 0 0 0 0 0 0 0 0 0
0 0 -0 -0 -0 -0 0 0 0 0 0 0 0 0 0 0 0 0 0 0 0 0 0 0 0 0 0 0 0 0 0 0 0 0 0 0 0 0 0 0 0 0 0 0
0 0 -0 0 -0 0 0 0 0 0 0 -0 0 0 0 0 0 0 0 0 0 0 0 0 0 0 0 0 0 0 0 0 0 0 0 0 0 0 0 0 0 0 0 0
0 0 -0 0 -0 0 0 0 0 0 0 0 0 0 0 0 0 0 0 0 0 0 0 0 0 0 0 0 0 0 0 0 0 0 0 0 0 0 0 0 0 0 0 0
0 0 -0 -0 -0 0 0 0 0 0 0 0 0 0 0 0 0 0 0 0 0 0 0 0 0 0 0 0 0 0 0 0 0 0 0 0 0 0 0 0 0 0 0 0
0 0 0 0 -0 0 0 0 0 0 0 0 0 0 0 0 0 0 0 0 0 0 0 0 0 0 0 0 0 0 0 0 0 0 0 0 0 0 0 0 0 0 0 0
0 0 0 0 0 0 0 0 0 0 0 0 0 0 0 0 0 0 0 0 0 0 0 0 0 0 0 0 0 0 0 0 0 0 0 0 0 0 0 0 0 0 0 0
0 0 0 0 0 0 0 0 0 0 0 0 0 0 0 0 0 0 0 0 0 0 0 0 0 0 -0 0 0 0 0 0 0 0 0 0 0 0 0 0 0 0 0 0
0 0 0 0 0 0 0 0 -0 -0 0 0 0 0 0 0 0 0 -0 0 0 0 0 0 0 0 0 0 0 0 0 0 0 0 0 0 0 0 0 0 0 0 0 0
0 0 0 0 0 0 0 0 -0 -0 -0 0 0 0 0 0 0 0 -0 0 0 0 0 0 0 0 0 0 0 0 0 0 0 0 0 0 0 0 0 0 0 0 0 0
0 0 0 0 0 0 0 0 0 -0 0 -0 0 0 0 0 0 0 -0 -0 0 0 0 0 0 0 0 0 0 0 0 0 0 0 0 0 0 0 0 0 0 0 0 0
0 0 0 0 0 0 0 0 0 0 -0 -0 0 0 0 0 0 0 0 0 0 0 0 0 0 0 0 0 0 0 0 0 0 0 0 0 0 0 0 0 0 0 0 0
0 0 0 0 0 0 0 0 0 -0 -0 0 0 0 0 0 0 0 -0 -0 0 0 0 0 0 0 0 0 0 0 0 0 0 0 0 0 0 0 0 0 0 0 0 0
0 0 0 0 0 0 0 0 0 0 0 0 0 0 0 0 0 0 0 0 0 0 0 0 0 0 0 0 0 0 0 0 0 0 0 0 0 0 0 0 0 0 0 0
0 0 0 0 0 0 0 0 0 0 0 0 0 0 0 0 0 0 0 0 0 0 0 0 0 0 0 0 0 0 0 0 0 0 0 0 0 0 0 0 0 0 0 0
0 0 0 0 0 0 0 0 0 0 0 0 0 0 0 0 0 0 0 0 0 0 0 0 0 0 0 0 0 0 0 0 0 0 0 -0 0 0 0 0 0 0 0 0
0 0 0 0 0 0 0 0 0 0 0 0 0 0 0 0 0 0 0 0 0 0 0 0 0 0 0 0 0 0 0 0 0 0 0 0 0 0 0 0 0 0 0 0
0 0 0 0 0 0 0 0 0 0 0 0 0 0 0 0 0 0 0 0 0 0 0 0 0 0 0 0 0 0 0 0 0 0 0 0 0 0 0 0 0 0 0 0
0 0 0 0 0 0 0 0 0 0 0 0 0 0 0 0 0 0 0 0 0 0 0 0 0 0 0 0 0 0 0 0 0 0 0 0 0 0 0 0 0 0 0 0
0 0 0 0 0 0 0 0 0 0 0 0 0 0 0 0 0 0 0 0 0 0 0 0 0 0 0 0 0 0 0 0 0 0 0 0 0 0 0 0 0 0 0 0
0 0 0 0 0 0 0 0 0 0 0 0 0 0 0 0 0 0 0 0 0 0 0 0 0 0 0 0 0 0 0 0 0 0 0 0 0 0 0 0 0 0 0 0
0 0 0 0 0 0 0 0 0 0 0 0 0 0 0 0 0 0 0 0 0 0 0 0 0 0 0 0 0 0 0 0 0 0 0 0 0 0 0 0 0 0 0 0
0 0 0 0 0 0 -0 -0 0 0 0 0 0 0 0 0 0 0 0 0 0 0 0 0 0 0 0 0 0 0 0 0 0 0 0 0 -0 -0 0 0 0 0 0 0
0 0 0 0 0 0 0 -0 0 0 0 0 0 0 0 0 0 0 0 0 0 0 0 0 0 0 0 0 0 0 0 0 0 0 0 0 0 0 0 0 0 0 0 0
0 0 0 0 0 0 0 0 0 0 0 0 0 0 0 0 0 0 0 0 0 0 0 0 0 0 0 0 0 0 0 0 0 0 0 0 0 0 0 0 0 0 0 0
0 0 0 0 0 0 -0 0 0 0 0 0 0 0 0 0 0 0 0 0 0 0 0 0 0 0 0 0 0 0 0 0 0 0 0 0 0 0 0 0 0 0 0 0
0 0 0 0 0 -0 0 0 0 0 0 0 0 0 0 0 0 0 0 0 0 0 0 0 0 0 -0 -0 -0 -0 0 0 0 0 0 0 0 0 0 0 0 0 0 0
Wind_Speed_500mb
55 58 58 54 45 50 29 3 3 11 22 5 3 5 7 5 7 9 9 4 4 6 7 8 5 4 5 12 6 3 2 5 5 2 1 4 3 2 2 6 4 0 4 6
53 56 56 53 45 51 29 5 7 18 10 4 3 3 5 7 5 8 8 7 3 3 2 4 2 4 5 7 1 0 6 3 3 3 6 4 4 3 5 4 2 8 12 6
51 53 53 49 43 47 24 5 3 5 2 6 3 1 7 7 6 6 6 7 7 4 6 6 3 3 3 6 5 10 5 4 4 6 4 4 7 16 8 4 5 3 3 16
49 50 49 45 41 42 19 7 3 4 5 3 7 1 4 5 5 2 11 4 14 14 9 5 7 4 5 1 5 6 4 5 5 3 3 3 4 7 9 4 6 8 16 19
47 46 46 41 36 39 14 8 3 4 5 3 2 3 3 5 6 6 7 11 13 16 9 8 11 12 5 1 3 4 2 3 1 4 1 5 9 6 3 10 12 8 14 12
45 43 43 39 29 34 12 12 7 3 2 3 3 2 2 4 9 4 5 8 9 7 1 8 9 8 7 12 4 5 2 5 3 2 9 10 7 7 9 6 11 7 14 9
42 39 40 38 27 27 25 13 8 4 1 2 1 0 3 6 5 7 10 2 4 4 8 9 16 23 23 24 16 3 7 6 2 4 7 4 7 3 1 4 11 9 5 4
40 36 36 36 25 23 24 11 6 4 2 1 2 6 5 8 8 7 7 2 2 15 5 3 4 5 2 9 12 9 4 7 4 4 2 4 5 5 2 5 7 8 4 2
38 33 32 34 24 20 21 13 6 3 2 4 4 0 3 4 5 4 3 4 8 3 0 3 6 6 1 3 4 7 10 10 1 4 2 4 6 6 3 2 5 5 1 2
36 30 29 31 23 17 19 10 5 4 4 2 6 1 2 1 2 4 8 5 5 3 3 3 5 5 4 7 6 5 3 4 2 4 3 2 3 14 2 6 7 3 2 3
33 28 26 29 20 14 16 7 6 5 5 4 4 4 3 3 3 1 4 3 3 3 3 4 5 5 5 3 3 1 1 3 3 4 4 5 10 1 3 5 5 3 2 2
32 25 24 26 18 12 12 8 6 7 8 5 4 5 4 2 2 5 3 0 2 4 5 1 3 4 4 2 4 2 3 3 3 2 5 2 3 5 5 9 3 2 4 4
29 23 23 23 18 12 10 8 8 7 7 8 7 4 5 5 4 7 2 1 2 6 8 11 2 4 1 5 5 5 4 4 4 7 3 3 1 2 5 6 4 2 4 7
28 22 22 21 18 13 11 10 8 9 7 2 2 5 5 8 9 0 6 6 1 4 6 4 3 3 1 3 5 1 3 3 7 6 4 4 3 7 6 4 5 6 6 7
26 21 22 21 18 14 15 14 12 12 8 4 4 4 5 3 7 4 5 9 3 5 4 3 4 5 4 4 3 4 2 5 3 5 5 3 7 11 5 4 4 3 7 7
22 22 22 21 16 15 13 7 13 9 5 5 4 3 8 8 3 3 5 7 7 6 6 7 6 4 1 4 4 3 3 7 12 9 7 3 3 8 9 10 12 17 15 19
21 24 24 18 18 19 14 3 5 15 5 3 5 4 5 12 10 5 0 2 6 6 7 6 5 4 3 3 5 14 3 6 11 13 10 2 10 11 15 18 22 28 33 34
23 26 19 15 19 18 18 15 12 10 4 4 3 3 3 9 7 4 3 7 5 9 6 5 4 4 3 2 1 7 10 12 15 17 16 13 15 21 20 21 24 28 32 37
25 15 12 14 14 12 13 12 9 10 6 2 3 4 4 5 4 2 3 4 4 3 5 4 3 3 3 4 6 8 8 6 8 11 12 17 25 29 33 32 29 38 31 37
10 19 11 10 14 16 19 8 6 7 7 9 5 5 3 2 2 3 2 4 4 3 4 2 1 3 3 3 2 4 4 3 5 9 15 22 26 25 27 28 20 28 32 38
18 14 7 15 23 15 9 7 4 4 5 7 5 7 1 2 1 3 1 3 2 4 3 2 1 4 9 12 10 10 10 8 9 9 12 19 22 19 17 17 20 26 23 26
12 12 18 16 9 6 4 2 2 5 3 4 4 5 3 3 2 2 3 2 4 2 6 3 2 3 17 15 7 4 1 2 4 11 21 27 25 29 22 27 27 24 26 26
20 10 10 6 4 5 8 9 3 3 6 4 3 3 2 3 3 7 2 3 5 7 2 1 4 7 18 13 7 4 3 9 13 20 27 29 25 28 29 32 29 31 34 32
7 9 5 2 3 3 3 3 4 5 9 8 7 5 3 2 2 2 4 5 5 3 3 2 3 16 18 10 4 4 14 23 25 30 36 38 37 38 39 39 39 44 46 43
3 4 4 3 4 4 8 11 9 8 6 3 3 5 2 4 4 3 6 5 4 1 5 4 11 6 16 14 11 11 19 23 31 36 42 46 46 48 50 52 53 51 50 47
3 6 6 7 7 5 7 8 7 3 1 3 4 4 2 4 2 3 4 6 3 1 1 8 12 12 15 25 27 30 35 39 42 45 46 50 54 57 57 57 49 42 39 35
5 4 11 8 11 10 8 8 7 3 2 1 3 3 4 4 3 4 2 3 3 3 0 8 16 19 21 26 34 42 47 48 51 53 55 55 52 47 39 36 31 26 23 19
Wind_Direction_500mb
348 346 344 347 351 350 353 18 91 155 148 103 35 165 199 225 249 192 223 150 136 223 194 246 120 261 289 5 344 219 71 145 254 315 38 269 203 73 144 292 285 259 301 297
347 346 345 347 353 354 3 25 82 149 33 146 171 265 262 239 224 223 194 171 206 178 239 277 319 23 332 335 221 348 183 46 268 197 163 134 53 25 105 117 204 245 295 339
347 346 345 347 352 353 360 347 112 126 327 87 118 195 253 245 232 214 157 134 121 118 244 208 196 314 336 331 61 66 68 109 249 291 305 18 305 321 344 225 267 340 296 320
346 346 343 348 350 353 2 357 71 134 173 124 98 132 315 268 217 192 188 144 204 187 198 200 202 200 272 284 98 79 90 161 229 23 272 197 71 21 43 73 46 355 350 340
345 345 342 349 351 353 11 8 354 70 86 76 87 99 222 264 270 230 217 230 183 191 224 236 211 200 164 7 133 86 86 136 293 153 98 348 108 50 99 80 31 19 347 34
343 344 340 346 352 360 353 353 5 7 31 98 230 170 312 314 354 265 279 283 190 195 119 298 316 236 125 129 121 144 139 141 9 280 349 133 151 47 57 87 55 350 14 358
340 341 339 342 346 353 357 339 340 325 101 244 331 310 276 274 280 273 315 325 173 38 327 143 91 71 88 78 59 99 144 113 129 297 313 223 67 174 341 60 64 49 76 31
337 338 337 337 339 344 348 331 322 316 302 242 224 234 255 294 285 250 285 272 329 307 310 238 123 334 349 81 47 49 32 120 126 269 300 16 112 40 4 12 77 24 70 125
334 333 334 333 333 337 335 298 287 282 242 223 202 305 7 310 340 263 268 297 313 249 101 115 180 210 246 214 120 49 82 65 238 151 254 268 56 3 294 231 143 36 86 190
330 328 329 330 329 331 328 293 264 276 273 224 167 54 301 35 153 272 301 330 169 81 138 176 178 183 118 229 172 155 121 57 106 152 218 135 4 321 177 285 25 84 177 201
326 323 322 326 324 322 323 288 258 256 315 301 232 218 232 179 222 250 321 266 70 103 126 193 167 192 140 149 64 110 198 157 155 113 220 202 357 212 350 84 155 188 204 228
321 317 314 322 316 306 307 280 301 300 263 272 284 290 333 244 273 294 16 10 41 77 91 303 147 119 178 161 171 110 166 354 49 291 50 4 343 75 138 174 176 223 231 312
316 308 306 315 306 289 280 270 298 306 290 287 239 160 46 52 100 80 357 1 205 183 174 144 189 126 216 167 157 129 98 118 109 182 120 332 53 273 248 225 221 137 67 7
308 297 298 307 298 273 257 246 259 274 282 294 252 157 122 67 50 117 4 7 124 171 141 118 111 98 261 96 86 67 46 175 138 108 47 106 44 319 299 248 178 127 37 9
299 289 294 295 287 257 246 241 246 247 233 288 280 172 176 123 54 54 19 4 35 152 111 76 72 94 162 81 140 113 205 147 170 110 141 82 357 0 6 252 245 341 321 293
286 285 287 283 266 241 241 234 230 205 223 269 278 210 184 165 142 301 344 38 79 108 96 97 103 80 36 127 148 134 150 150 143 134 157 191 303 320 291 269 278 254 277 288
276 276 285 263 238 228 209 212 215 199 273 248 278 275 205 204 208 240 261 83 88 86 103 77 100 90 60 136 190 160 174 221 212 208 203 257 259 290 296 294 286 281 275 280
269 279 268 233 224 223 225 235 226 214 257 242 244 266 232 197 204 190 183 167 135 55 98 97 91 100 47 91 31 292 273 267 239 231 236 262 279 287 276 270 269 270 280 289
279 256 207 207 212 200 194 181 187 199 234 253 208 239 222 180 182 137 109 148 105 77 87 83 164 136 166 183 248 271 255 221 224 264 271 284 285 284 287 282 272 279 295 310
191 168 172 194 178 169 166 181 204 212 223 222 243 205 189 172 133 89 160 52 119 138 65 115 65 112 188 213 225 99 84 12 345 341 347 345 332 319 322 318 295 305 303 301
166 187 201 164 155 157 180 201 197 195 218 211 197 198 186 149 213 122 54 121 134 124 115 278 116 200 202 158 115 96 86 56 26 16 3 350 343 355 0 344 325 312 310 319
193 163 140 139 167 175 173 210 214 227 216 180 185 154 138 135 135 164 159 145 161 135 153 196 222 261 180 196 203 182 137 25 20 351 336 329 313 311 307 315 315 310 308 302
156 162 161 170 176 86 191 183 188 220 188 169 141 117 98 113 108 85 181 94 60 146 195 65 255 224 200 198 198 201 339 323 313 316 323 324 320 317 312 302 296 301 300 294
185 173 43 171 183 230 183 188 132 133 135 122 74 73 54 34 122 80 92 80 154 300 196 132 266 225 207 204 232 276 311 307 307 308 311 315 307 300 301 300 295 293 290 281
170 123 118 147 113 105 121 115 108 101 117 63 88 99 64 49 106 50 115 153 93 98 2 321 337 259 213 226 237 255 302 294 299 301 304 308 307 304 299 302 296 284 283 271
104 87 115 133 122 120 111 96 83 45 324 108 102 105 124 81 68 130 102 127 101 340 214 318 349 347 300 288 282 281 287 292 295 298 304 304 302 306 306 300 300 289 277 269
90 84 123 139 116 117 93 57 14 345 149 150 133 135 62 126 85 72 49 100 56 111 256 360 1 350 339 327 323 319 311 305 305 302 300 303 309 311 312 312 306 285 272 274
Wind_Speed_850mb
55 58 58 54 45 50 29 3 3 11 22 5 3 5 7 5 7 9 9 4 4 6 7 8 5 4 5 12 6 3 2 5 5 2 1 4 3 2 2 6 4 0 4 6
53 56 56 53 45 51 29 5 7 18 10 4 3 3 5 7 5 8 8 7 3 3 2 4 2 4 5 7 1 0 6 3 3 3 6 4 4 3 5 4 2 8 12 6
51 53 53 49 43 47 24 5 3 5 2 6 3 1 7 7 6 6 6 7 7 4 6 6 3 3 3 6 5 10 5 4 4 6 4 4 7 16 8 4 5 3 3 16
49 50 49 45 41 42 19 7 3 4 5 3 7 1 4 5 5 2 11 4 14 14 9 5 7 4 5 1 5 6 4 5 5 3 3 3 4 7 9 4 6 8 16 19
47 46 46 41 36 39 14 8 3 4 5 3 2 3 3 5 6 6 7 11 13 16 9 8 11 12 5 1 3 4 2 3 1 4 1 5 9 6 3 10 12 8 14 12
45 43 43 39 29 34 12 12 7 3 2 3 3 2 2 4 9 4 5 8 9 7 1 8 9 8 7 12 4 5 2 5 3 2 9 10 7 7 9 6 11 7 14 9
42 39 40 38 27 27 25 13 8 4 1 2 1 0 3 6 5 7 10 2 4 4 8 9 16 23 23 24 16 3 7 6 2 4 7 4 7 3 1 4 11 9 5 4
40 36 36 36 25 23 24 11 6 4 2 1 2 6 5 8 8 7 7 2 2 15 5 3 4 5 2 9 12 9 4 7 4 4 2 4 5 5 2 5 7 8 4 2
38 33 32 34 24 20 21 13 6 3 2 4 4 0 3 4 5 4 3 4 8 3 0 3 6 6 1 3 4 7 10 10 1 4 2 4 6 6 3 2 5 5 1 2
36 30 29 31 23 17 19 10 5 4 4 2 6 1 2 1 2 4 8 5 5 3 3 3 5 5 4 7 6 5 3 4 2 4 3 2 3 14 2 6 7 3 2 3
33 28 26 29 20 14 16 7 6 5 5 4 4 4 3 3 3 1 4 3 3 3 3 4 5 5 5 3 3 1 1 3 3 4 4 5 10 1 3 5 5 3 2 2
32 25 24 26 18 12 12 8 6 7 8 5 4 5 4 2 2 5 3 0 2 4 5 1 3 4 4 2 4 2 3 3 3 2 5 2 3 5 5 9 3 2 4 4
29 23 23 23 18 12 10 8 8 7 7 8 7 4 5 5 4 7 2 1 2 6 8 11 2 4 1 5 5 5 4 4 4 7 3 3 1 2 5 6 4 2 4 7
28 22 22 21 18 13 11 10 8 9 7 2 2 5 5 8 9 0 6 6 1 4 6 4 3 3 1 3 5 1 3 3 7 6 4 4 3 7 6 4 5 6 6 7
26 21 22 21 18 14 15 14 12 12 8 4 4 4 5 3 7 4 5 9 3 5 4 3 4 5 4 4 3 4 2 5 3 5 5 3 7 11 5 4 4 3 7 7
22 22 22 21 16 15 13 7 13 9 5 5 4 3 8 8 3 3 5 7 7 6 6 7 6 4 1 4 4 3 3 7 12 9 7 3 3 8 9 10 12 17 15 19
21 24 24 18 18 19 14 3 5 15 5 3 5 4 5 12 10 5 0 2 6 6 7 6 5 4 3 3 5 14 3 6 11 13 10 2 10 11 15 18 22 28 33 34
23 26 19 15 19 18 18 15 12 10 4 4 3 3 3 9 7 4 3 7 5 9 6 5 4 4 3 2 1 7 10 12 15 17 16 13 15 21 20 21 24 28 32 37
25 15 12 14 14 12 13 12 9 10 6 2 3 4 4 5 4 2 3 4 4 3 5 4 3 3 3 4 6 8 8 6 8 11 12 17 25 29 33 32 29 38 31 37
10 19 11 10 14 16 19 8 6 7 7 9 5 5 3 2 2 3 2 4 4 3 4 2 1 3 3 3 2 4 4 3 5 9 15 22 26 25 27 28 20 28 32 38
18 14 7 15 23 15 9 7 4 4 5 7 5 7 1 2 1 3 1 3 2 4 3 2 1 4 9 12 10 10 10 8 9 9 12 19 22 19 17 17 20 26 23 26
12 12 18 16 9 6 4 2 2 5 3 4 4 5 3 3 2 2 3 2 4 2 6 3 2 3 17 15 7 4 1 2 4 11 21 27 25 29 22 27 27 24 26 26
20 10 10 6 4 5 8 9 3 3 6 4 3 3 2 3 3 7 2 3 5 7 2 1 4 7 18 13 7 4 3 9 13 20 27 29 25 28 29 32 29 31 34 32
7 9 5 2 3 3 3 3 4 5 9 8 7 5 3 2 2 2 4 5 5 3 3 2 3 16 18 10 4 4 14 23 25 30 36 38 37 38 39 39 39 44 46 43
3 4 4 3 4 4 8 11 9 8 6 3 3 5 2 4 4 3 6 5 4 1 5 4 11 6 16 14 11 11 19 23 31 36 42 46 46 48 50 52 53 51 50 47
3 6 6 7 7 5 7 8 7 3 1 3 4 4 2 4 2 3 4 6 3 1 1 8 12 12 15 25 27 30 35 39 42 45 46 50 54 57 57 57 49 42 39 35
5 4 11 8 11 10 8 8 7 3 2 1 3 3 4 4 3 4 2 3 3 3 0 8 16 19 21 26 34 42 47 48 51 53 55 55 52 47 39 36 31 26 23 19
Wind_Direction_850mb
348 346 344 347 351 350 353 18 91 155 148 103 35 165 199 225 249 192 223 150 136 223 194 246 120 261 289 5 344 219 71 145 254 315 38 269 203 73 144 292 285 259 301 297
347 346 345 347 353 354 3 25 82 149 33 146 171 265 262 239 224 223 194 171 206 178 239 277 319 23 332 335 221 348 183 46 268 197 163 134 53 25 105 117 204 245 295 339
347 346 345 347 352 353 360 347 112 126 327 87 118 195 253 245 232 214 157 134 121 118 244 208 196 314 336 331 61 66 68 109 249 291 305 18 305 321 344 225 267 340 296 320
346 346 343 348 350 353 2 357 71 134 173 124 98 132 315 268 217 192 188 144 204 187 198 200 202 200 272 284 98 79 90 161 229 23 272 197 71 21 43 73 46 355 350 340
345 345 342 349 351 353 11 8 354 70 86 76 87 99 222 264 270 230 217 230 183 191 224 236 211 200 164 7 133 86 86 136 293 153 98 348 108 50 99 80 31 19 347 34
343 344 340 346 352 360 353 353 5 7 31 98 230 170 312 314 354 265 279 283 190 195 119 298 316 236 125 129 121 144 139 141 9 280 349 133 151 47 57 87 55 350 14 358
340 341 339 342 346 353 357 339 340 325 101 244 331 310 276 274 280 273 315 325 173 38 327 143 91 71 88 78 59 99 144 113 129 297 313 223 67 174 341 60 64 49 76 31
337 338 337 337 339 344 348 331 322 316 302 242 224 234 255 294 285 250 285 272 329 307 310 238 123 334 349 81 47 49 32 120 126 269 300 16 112 40 4 12 77 24 70 125
334 333 334 333 333 337 335 298 287 282 242 223 202 305 7 310 340 263 268 297 313 249 101 115 180 210 246 214 120 49 82 65 238 151 254 268 56 3 294 231 143 36 86 190
330 328 329 330 329 331 328 293 264 276 273 224 167 54 301 35 153 272 301 330 169 81 138 176 178 183 118 229 172 155 121 57 106 152 218 135 4 321 177 285 25 84 177 201
326 323 322 326 324 322 323 288 258 256 315 301 232 218 232 179 222 250 321 266 70 103 126 193 167 192 140 149 64 110 198 157 155 113 220 202 357 212 350 84 155 188 204 228
321 317 314 322 316 306 307 280 301 300 263 272 284 290 333 244 273 294 16 10 41 77 91 303 147 119 178 161 171 110 166 354 49 291 50 4 343 75 138 174 176 223 231 312
316 308 306 315 306 289 280 270 298 306 290 287 239 160 46 52 100 80 357 1 205 183 174 144 189 126 216 167 157 129 98 118 109 182 120 332 53 273 248 225 221 137 67 7
308 297 298 307 298 273 257 246 259 274 282 294 252 157 122 67 50 117 4 7 124 171 141 118 111 98 261 96 86 67 46 175 138 108 47 106 44 319 299 248 178 127 37 9
299 289 294 295 287 257 246 241 246 247 233 288 280 172 176 123 54 54 19 4 35 152 111 76 72 94 162 81 140 113 205 147 170 110 141 82 357 0 6 252 245 341 321 293
286 285 287 283 266 241 241 234 230 205 223 269 278 210 184 165 142 301 344 38 79 108 96 97 103 80 36 127 148 134 150 150 143 134 157 191 303 320 291 269 278 254 277 288
276 276 285 263 238 228 209 212 215 199 273 248 278 275 205 204 208 240 261 83 88 86 103 77 100 90 60 136 190 160 174 221 212 208 203 257 259 290 296 294 286 281 275 280
269 279 268 233 224 223 225 235 226 214 257 242 244 266 232 197 204 190 183 167 135 55 98 97 91 100 47 91 31 292 273 267 239 231 236 262 279 287 276 270 269 270 280 289
279 256 207 207 212 200 194 181 187 199 234 253 208 239 222 180 182 137 109 148 105 77 87 83 164 136 166 183 248 271 255 221 224 264 271 284 285 284 287 282 272 279 295 310
191 168 172 194 178 169 166 181 204 212 223 222 243 205 189 172 133 89 160 52 119 138 65 115 65 112 188 213 225 99 84 12 345 341 347 345 332 319 322 318 295 305 303 301
166 187 201 164 155 157 180 201 197 195 218 211 197 198 186 149 213 122 54 121 134 124 115 278 116 200 202 158 115 96 86 56 26 16 3 350 343 355 0 344 325 312 310 319
193 163 140 139 167 175 173 210 214 227 216 180 185 154 138 135 135 164 159 145 161 135 153 196 222 261 180 196 203 182 137 25 20 351 336 329 313 311 307 315 315 310 308 302
156 162 161 170 176 86 191 183 188 220 188 169 141 117 98 113 108 85 181 94 60 146 195 65 255 224 200 198 198 201 339 323 313 316 323 324 320 317 312 302 296 301 300 294
185 173 43 171 183 230 183 188 132 133 135 122 74 73 54 34 122 80 92 80 154 300 196 132 266 225 207 204 232 276 311 307 307 308 311 315 307 300 301 300 295 293 290 281
170 123 118 147 113 105 121 115 108 101 117 63 88 99 64 49 106 50 115 153 93 98 2 321 337 259 213 226 237 255 302 294 299 301 304 308 307 304 299 302 296 284 283 271
104 87 115 133 122 120 111 96 83 45 324 108 102 105 124 81 68 130 102 127 101 340 214 318 349 347 300 288 282 281 287 292 295 298 304 304 302 306 306 300 300 289 277 269
90 84 123 139 116 117 93 57 14 345 149 150 133 135 62 126 85 72 49 100 56 111 256 360 1 350 339 327 323 319 311 305 305 302 300 303 309 311 312 312 306 285 272 274